{"data":{"norad_id":63818,"intl_designator":"2025-092Q","name":"STARLINK-34058","alt_names":[],"object_type":"PAYLOAD","status":"ACTIVE","operator":null,"country":"US","launch_date":"2025-05-04","launch_site_code":"AFETR","launch_vehicle":null,"mission":null,"orbit_class":"UNKNOWN","rcs_meters":null,"size_class":null,"mass_kg":null,"dimensions":null,"purposes":["comms"],"wikipedia_slug":null,"has_3d_model":false,"image_url":null,"decayed_at":null,"tle_current":{"epoch":"2026-09-20T23:11:51.164160Z","epoch_age_seconds":109590,"freshness":"FRESH","line1":"1 63818U 25092Q   26263.96656440  .00011654  00000+0  43223-3 0  9996","line2":"2 63818  42.9991 149.3827 0001191 267.8658  92.2058 15.27588928 78534","mean_motion":15.27588928,"eccentricity":0.0001191,"inclination_deg":42.9991,"raan_deg":149.3827,"arg_perigee_deg":267.8658,"mean_anomaly_deg":92.2058,"bstar":0.00043223,"rev_number":7853,"period_min":94.266197771237,"perigee_km":482.20519844595,"apogee_km":483.8395266061,"semimajor_km":6861.159362526,"source":"CELESTRAK","updated_at":"2026-09-21T09:00:35.106626Z"}}}